User: anonymous   Login
Location: Unspecified
(0.0000°N, 0.0000°E)
Time: 23:54:25
(UTC+00:00)
Language:

FENGYUN 3A - Orbit

View from above orbital plane
View from above orbital plane
View from above satellite
View from above satellite

Ground track
Ground track

The orbit is defined by the following mean orbital elements,

1 32958U          26145.42205508 +.00000000 +00000-0 +50946-4 0 00002
2 32958  98.6876  86.6824 0008428 186.5019 173.6049 14.19565740    01
Epoch (UTC): 25 May 2026 10:07:45
Eccentricity: 0.0008428
inclination: 98.6876°
perigee height: 821 km
apogee height: 833 km
right ascension of ascending node: 86.6824°
argument of perigee: 186.5019°
revolutions per day: 14.19565740
mean anomaly at epoch: 173.6049°

The dashed part of the orbit path shows where the satellite is in the earth's shadow,  

DLR